Starlink 30121

operational
NORAD ID: 56695 Int'l Des: 2023-067 Owner: SPXS Country: US Constellation: starlink
LEOCIRCULAR

Starlink 30121について

説明を読み込み中...

リアルタイム位置

3D地球を読み込み中...

次回通過

高度履歴

Altitude vs Time

uPlot chart will show altitude changes over time

軌道要素

1 56695U 23067H 25351.75923915 .00000174 00000-0 27949-4 0 9993
2 56695 43.0094 359.7970 0001797 287.1700 72.8946 15.02543643143335
Epoch: Dec 17, 2025 • Age: 13 hours

現在のステータス

高度 562.8 km
速度 7.59 km/s
衛星直下点 41.21°N, 131.02°W
打ち上げ日 May 19, 2023
運用期間 2.5 years
タイプ internet

技術仕様

分類 Payload
質量 730.00 kg
乾燥質量 700.00 kg
総質量 730.00 kg
長さ 0.30 m
直径 4.10 m
スパン 29.00 m
形状 Box + pan
製造者 SPXS
バスタイプ Starlink V2M
フェーズステータス In Orbit
所有者/国 SPXS/US

大規模コンステレーション

Loading constellations...